Regional Weather Roundup
Issued by NWS

Home | Current Version | Previous Version | Text Only | Print | Product List | Glossary On
Versions: 1 2 3 4 5 6 7 8 9 10 11 12 13 14 15 16 17 18 19 20 21 22 23 24 25 26 27 28 29 30 31 32 33 34 35 36 37 38 39 40 41 42 43 44 45 46 47 48 49 50
000
ASUS43 KDMX 301507
RWRIA

WEATHER ROUNDUP FOR IOWA
NATIONAL WEATHER SERVICE DES MOINES IA
1000 AM CDT TUE JUN 30 2015

NOTE: "FAIR" INDICATES FEW OR NO CLOUDS BELOW 12,000 FEET WITH NO
SIGNIFICANT WEATHER AND/OR OBSTRUCTIONS TO VISIBILITY.

* - THESE STATIONS ARE NOT NWS STATIONS...THUS NOT UNDER NWS
QUALITY CONTROL.  THEY ALSO DO NOT REPORT WEATHER SUCH
AS PRECIPITATION OR FOG.

IAZ001>003-012>014-020>022-031>034-043>046-301600-
   NORTHWEST IOWA

CITY           SKY/WX    TMP DP  RH WIND       PRES   REMARKS
CARROLL *      SUNNY     70  66  88 NW5       29.94S
CHEROKEE *     CLOUDY    68  66  94 CALM      29.95S FOG
DENISON *      SUNNY     68  66  94 CALM      29.92F FOG
LE MARS *      SUNNY     70  64  83 CALM      29.95S
ORANGE CITY *  SUNNY     66  64  94 E5        29.94F
SHELDON *      SUNNY     68  68 100 CALM      29.93F
SIOUX CITY     CLOUDY    71  64  78 CALM      29.94F HAZE
SPENCER        MOSUNNY   71  64  78 N3        29.94F
STORM LAKE *   SUNNY     68  64  88 CALM      29.96S
$$

IAZ055>058-069>071-079>083-090>094-301600-
   SOUTHWEST IOWA

CITY           SKY/WX    TMP DP  RH WIND       PRES   REMARKS
ATLANTIC *     MOSUNNY   70  66  88 VRB3      29.94F
AUDUBON *      SUNNY     73  66  78 CALM      29.95F
CLARINDA *     SUNNY     73  68  83 NW6       29.96S
COUNCIL BLFS * SUNNY     73  64  73 CALM      29.95F
CRESTON *      SUNNY     73  64  73 NW6       29.94F
HARLAN  *      SUNNY     70  70 100 SW5       29.97F
LAMONI         SUNNY     74  65  73 NW6       29.93S
RED OAK *      SUNNY     72  66  83 W6        29.95S
SHENANDOAH *   SUNNY     75  66  73 CALM      29.96S
$$

IAZ047>049-059>061-072>074-084-301600-
   CENTRAL IOWA

CITY           SKY/WX    TMP DP  RH WIND       PRES   REMARKS
AMES           SUNNY     72  66  81 N6        29.92S HAZE
ANKENY *       SUNNY     72  66  83 NW7       29.92S
CHARITON *     SUNNY     70  66  88 NW7       29.92S
DES MOINES     CLOUDY    73  65  75 N7        29.91F
GRINNELL*      SUNNY     70  66  88 NW7       29.91S
KNOXVILLE *    SUNNY     70  66  88 NW9       29.90S
MARSHALLTOWN   MOSUNNY   71  66  84 N6        29.90S HAZE
PELLA *        SUNNY     72  68  88 NW14G20   29.91S
PERRY *          N/A     70  66  88 N7        29.93S
$$

IAZ004>006-015-016-023>025-035-036-301600-
   NORTH CENTRAL IOWA

CITY           SKY/WX    TMP DP  RH WIND       PRES   REMARKS
ALGONA *       SUNNY     70  64  83 N6        29.93F
CLARION *      SUNNY     70  64  83 NW7       29.92F
ESTHERVILLE    SUNNY     68  63  84 N6        29.94F
FORT DODGE *   MOSUNNY   68  63  83 N6        29.94F
MASON CITY     SUNNY     71  65  81 VRB6      29.93S
FOREST CITY *  SUNNY     68  63  83 N7        29.93S
IOWA FALLS *     N/A     72  66  83 NW3       29.92F
$$

IAZ007>011-017>019-026>030-037>042-050>054-066-301600-
   NORTHEAST IOWA

CITY           SKY/WX    TMP DP  RH WIND       PRES   REMARKS
CEDAR RAPIDS   SUNNY     71  65  81 NW7       29.87S
CHARLES CITY * SUNNY     70  66  88 NW5       29.92S
CLINTON *      SUNNY     70  61  73 N8        29.89S
DECORAH *        N/A    N/A N/A N/A MISG        N/A
DUBUQUE        SUNNY     69  61  75 N7        29.89R
MONTICELLO *   SUNNY     72  72 100 N8        29.88S
OELWEIN *      SUNNY     72  63  73 N7        29.90S
WATERLOO       SUNNY     72  63  73 MISG      29.89S
$$

IAZ064-065-067-068-078-301600-
   EAST CENTRAL IOWA

CITY           SKY/WX    TMP DP  RH WIND       PRES   REMARKS
DAVENPORT      SUNNY     73  61  65 N8        29.87S
IOWA CITY      SUNNY     73  64  73 NW7       29.88S
MT. PLEASANT * SUNNY     75  63  64 NW8       29.88S
MUSCATINE *    SUNNY     73  64  73 N7        29.86F
QUAD CITIES    SUNNY     74  60  61 N8        29.86S
$$

IAZ062-063-075>077-085>089-095>099-301600-
   SOUTHEAST IOWA

CITY           SKY/WX    TMP DP  RH WIND       PRES   REMARKS
BURLINGTON     SUNNY     73  68  84 NW3       29.87S
FAIRFIELD *    SUNNY     72  64  78 NW10      29.89S
FORT MADISON * SUNNY     72  66  83 NW9       29.88S
KEOKUK *       SUNNY     73  66  78 NW7       29.87S
OSKALOOSA *      N/A     70  66  88 N7        29.90S
CENTERVILLE *  SUNNY     72  66  83 NW8       29.93S
OTTUMWA        SUNNY     71  67  87 NW9       29.88S
WASHINGTON *   SUNNY     73  68  83 NW8       29.89S
$$

ABBREVIATIONS USED IN REMARKS
   TC - TEMPERATURES IN CELSIUS
  WCI - WIND CHILL INDEX
   HX - HEAT INDEX
  VSB - VISIBILITY
$$




USA.gov is the U.S. government's official web portal to all federal, state and local government web resources and services.